Wetbulb
47.33 47.17 46.97 49.84 50.48 50.59 51.84 52.54 52.51 52.67 52.34 52.53 52.41 52.28 51.92 51.24 50.59 49.77 49.99 50.09 48.30 49.32 48.91 48.42 48.79 49.01 48.81 48.39 47.82 47.50 47.36 45.08 45.74 46.08 44.88 45.64 44.65 45.19 46.48 48.46 47.52 47.20 47.68
46.60 46.45 45.62 46.37 48.75 49.89 50.85 52.32 52.89 52.82 52.96 53.46 53.43 52.65 52.71 52.30 51.64 50.38 49.98 50.81 49.16 48.83 49.39 48.91 48.94 49.56 48.59 48.90 48.72 48.32 48.45 47.37 47.69 46.52 44.46 44.39 44.41 44.35 44.86 44.88 46.91 47.80 46.55
45.46 46.26 45.74 45.61 45.28 46.15 49.20 51.50 52.11 52.43 53.12 53.41 53.64 52.98 52.58 52.68 51.89 51.08 51.01 50.74 50.35 49.80 49.98 49.26 49.46 49.09 48.68 49.32 49.12 48.98 48.88 48.97 47.46 46.48 46.57 44.36 44.29 43.48 43.38 44.27 44.71 45.46 46.80
44.52 44.47 45.17 45.46 45.28 45.38 46.20 47.96 50.25 51.86 52.60 52.91 53.43 53.79 53.52 53.32 52.60 52.02 51.20 50.51 50.37 50.39 50.23 49.98 49.75 49.56 49.46 49.42 49.22 49.25 49.39 48.18 46.77 46.68 46.82 43.35 43.15 43.53 43.45 43.31 42.92 43.34 44.64
43.11 43.31 43.88 45.42 45.24 45.63 46.02 46.52 46.88 48.09 50.35 52.01 52.88 53.11 53.83 53.59 53.12 51.79 51.61 50.82 50.16 49.63 49.92 49.97 50.12 51.12 53.22 52.40 50.34 49.40 49.27 47.69 47.33 46.10 46.10 42.61 43.42 41.14 43.12 42.09 44.56 42.61 42.39
42.16 42.12 43.64 44.45 44.49 43.99 44.64 45.52 46.07 46.45 46.56 47.74 49.10 51.27 51.91 53.48 54.55 53.86 52.45 51.14 50.79 50.10 49.52 49.47 50.19 52.59 53.06 54.87 55.02 54.38 51.66 48.55 47.37 46.76 46.70 45.69 45.66 46.24 42.53 44.40 43.21 39.93 39.19
41.45 42.61 43.26 43.68 43.37 43.70 44.06 44.07 44.28 44.63 45.73 46.10 46.62 47.59 49.03 51.04 54.28 55.34 54.13 52.68 51.37 50.62 50.14 50.12 49.86 50.53 51.86 51.29 54.44 55.43 54.73 53.99 53.31 49.06 47.38 47.10 47.19 47.18 46.41 41.05 42.16 40.23 41.49
41.11 41.61 42.49 42.88 43.40 43.66 42.97 42.98 42.97 43.63 44.20 44.75 46.18 47.50 47.16 49.15 52.83 54.23 54.87 53.29 52.48 51.87 51.12 50.47 49.89 50.13 50.17 50.68 50.63 50.63 52.26 52.46 52.18 52.32 49.87 50.34 49.45 48.76 47.60 46.92 45.57 42.35 37.36
41.35 41.69 42.44 42.41 42.46 42.97 42.25 42.28 42.37 42.32 43.41 43.43 45.73 47.17 47.15 48.21 51.50 52.77 52.83 51.46 51.55 51.48 51.91 51.21 50.40 49.90 51.78 53.19 50.16 49.40 49.64 50.87 53.73 53.86 53.51 52.90 53.03 51.67 48.77 43.15 39.85 40.20 34.69
41.40 42.11 42.78 42.67 42.36 41.90 42.10 41.80 41.88 41.79 42.83 44.08 44.98 46.26 47.46 47.58 50.45 51.91 51.87 50.38 49.31 49.73 50.48 51.06 51.73 50.70 52.29 52.93 50.76 49.48 48.23 48.96 49.59 50.06 50.80 52.11 52.52 50.80 50.63 47.16 44.57 42.61 34.92
42.12 42.46 42.32 42.37 42.04 41.57 41.53 42.05 42.16 41.87 42.10 41.82 43.74 43.81 44.87 47.14 48.02 51.09 52.01 50.21 49.61 49.42 49.40 49.58 50.48 51.97 52.38 52.51 52.59 50.43 49.72 50.84 50.18 49.45 49.21 49.10 49.88 47.93 48.22 47.29 46.18 46.06 38.08
41.49 41.49 41.63 41.76 42.42 43.25 41.30 41.35 41.58 40.91 40.28 41.22 41.78 42.95 44.96 45.05 49.26 50.65 52.28 52.60 52.19 50.01 49.61 50.61 50.66 51.13 51.85 52.10 52.01 52.67 53.06 52.45 50.15 47.28 47.53 46.93 47.37 46.69 47.29 47.42 46.23 46.26 46.41
41.11 40.70 40.74 41.42 41.69 42.28 41.25 41.21 41.10 41.32 40.45 41.19 41.73 41.86 42.69 44.62 45.01 49.60 51.34 52.08 52.26 50.70 51.07 51.44 51.39 51.63 51.74 51.60 52.08 52.39 52.77 51.08 49.88 48.14 45.41 46.55 46.96 47.85 47.63 43.88 39.17 37.26 35.64
37.79 38.38 39.31 39.41 41.34 41.96 42.45 42.35 41.57 41.19 41.04 41.49 41.52 41.70 42.28 43.25 44.07 45.13 45.86 46.67 49.04 48.83 49.54 49.54 50.98 51.36 51.71 50.63 49.70 50.43 50.81 50.42 49.65 48.78 47.55 47.22 46.60 44.79 44.88 42.38 39.09 34.24 34.38
35.43 36.53 36.92 37.92 38.67 39.59 41.15 41.81 42.08 42.86 42.86 41.84 42.53 42.75 41.99 41.84 43.52 46.58 47.19 46.60 46.62 47.36 48.38 47.39 46.45 45.26 46.35 46.98 46.72 47.01 47.57 49.12 49.04 49.25 48.14 46.15 43.37 42.87 42.22 40.73 40.45 36.32 38.19
36.09 37.12 37.85 38.12 38.28 38.57 38.76 39.56 44.24 45.50 46.28 46.15 46.34 45.41 44.43 45.98 47.14 47.58 48.18 47.55 47.22 47.79 45.98 44.70 44.68 45.18 45.41 45.79 45.46 45.29 45.69 47.75 48.19 48.38 47.83 45.99 42.30 42.52 41.25 38.82 39.34 36.72 37.46
32.89 33.89 34.97 35.99 36.81 37.24 37.62 37.42 36.60 39.73 43.00 43.83 44.73 45.31 45.90 46.27 46.53 46.79 47.07 46.78 47.30 47.75 44.38 44.19 44.16 44.64 44.88 45.00 45.27 44.96 44.94 46.06 47.69 47.39 46.83 45.12 42.77 42.08 41.67 38.02 38.42 36.79 36.45
32.31 34.35 33.12 33.56 34.00 34.76 35.48 36.02 36.75 36.64 36.04 37.31 41.73 42.98 43.46 44.37 44.97 45.70 46.35 46.29 43.60 44.58 43.07 43.45 43.61 44.34 44.64 44.89 44.84 44.63 44.85 45.15 45.25 46.16 45.65 44.39 42.57 41.93 40.25 38.03 37.85 36.61 36.43
31.78 32.02 32.54 32.89 33.60 34.31 34.52 35.17 36.18 37.22 37.72 38.02 39.42 41.74 43.31 43.97 44.41 45.41 46.22 43.70 42.66 42.74 43.38 42.82 43.16 43.51 43.87 44.25 44.88 44.77 44.67 44.53 44.59 44.70 44.63 43.27 42.16 41.47 40.08 38.58 37.76 38.37 37.11
30.07 31.66 31.91 30.43 30.48 30.55 31.02 30.77 31.05 32.01 33.44 35.09 36.22 37.93 40.49 41.41 39.94 40.11 41.02 41.77 42.30 42.74 43.33 43.37 43.68 43.61 43.33 43.43 43.83 44.04 43.59 43.59 43.84 43.70 43.86 42.95 42.59 41.29 40.77 38.18 36.77 35.77 35.63
29.18 29.07 30.84 29.16 29.12 29.01 29.18 28.44 29.02 29.85 29.57 30.59 31.69 33.58 36.85 35.11 39.61 42.05 42.70 43.15 42.77 42.70 43.24 43.43 43.51 43.51 43.58 43.33 43.36 43.41 43.21 43.49 43.51 44.64 44.53 43.56 42.52 39.66 40.48 39.10 37.03 36.46 35.71
28.16 28.00 28.06 28.09 28.66 28.25 28.06 27.82 27.83 28.21 28.16 28.37 29.06 30.54 32.74 31.32 31.77 32.66 33.76 35.22 40.85 44.61 43.77 43.82 44.08 44.19 44.18 43.83 43.71 43.58 43.35 43.28 43.60 44.41 44.66 43.81 42.30 39.64 39.20 38.01 36.05 35.78 34.95
26.88 26.68 26.33 27.09 27.99 28.06 27.19 27.19 26.88 27.35 27.12 27.55 28.13 28.37 28.90 29.03 29.49 30.14 31.09 31.95 33.74 35.31 39.10 44.25 44.81 44.73 44.66 44.98 45.27 44.90 44.56 44.41 44.49 44.64 44.13 42.97 41.13 38.94 38.30 36.58 35.43 34.77 33.94
25.83 25.16 25.48 25.60 26.13 26.13 25.97 25.71 25.77 26.98 26.85 26.90 27.25 27.47 27.43 27.99 28.39 28.81 29.45 30.07 30.93 32.01 34.38 36.97 40.98 42.81 43.34 44.10 45.58 46.21 46.27 46.34 46.59 45.15 44.04 42.56 40.44 38.28 37.56 36.17 35.42 34.81 34.00
24.72 24.20 24.07 24.08 24.91 24.57 24.71 24.95 25.22 25.29 25.70 25.98 26.20 26.76 27.10 27.50 27.50 27.99 28.77 29.42 29.54 30.13 31.10 32.89 34.58 35.48 37.98 40.63 43.73 45.34 44.82 41.42 43.72 43.41 43.52 42.73 40.26 37.96 36.93 35.86 35.08 34.54 33.70
22.89 23.66 23.42 23.02 22.48 23.68 23.24 23.15 23.63 24.33 24.32 25.31 25.23 25.91 26.50 26.95 27.41 27.73 27.84 28.09 28.68 29.13 29.71 30.93 31.83 33.24 33.73 36.48 38.21 38.15 38.62 40.01 40.98 40.54 42.81 41.87 38.99 37.22 36.23 35.44 34.61 33.83 32.85
MSLP
1014.37 1013.93 1013.51 1013.13 1012.92 1013.07 1013.13 1012.92 1013.00 1013.05 1013.19 1013.41 1013.55 1013.76 1013.96 1014.19 1014.43 1014.79 1014.93 1015.13 1015.44 1015.56 1015.81 1015.98 1015.97 1016.19 1016.38 1016.72 1016.97 1017.14 1017.52 1017.88 1018.10 1017.52 1017.46 1017.38 1017.73 1017.84 1017.87 1018.04 1018.08 1018.22 1018.40
1014.94 1014.52 1013.99 1013.34 1013.03 1013.00 1012.77 1012.44 1012.38 1012.31 1012.32 1012.35 1012.54 1012.75 1012.90 1013.04 1013.29 1013.65 1013.87 1014.00 1014.34 1014.56 1014.53 1015.00 1014.83 1015.32 1015.48 1015.66 1015.91 1016.00 1016.21 1016.53 1016.98 1016.80 1017.00 1017.16 1017.17 1017.17 1017.31 1017.60 1017.59 1017.58 1017.83
1015.22 1014.79 1014.38 1013.91 1013.48 1013.14 1012.66 1012.22 1011.96 1011.82 1011.77 1011.61 1011.65 1011.78 1011.87 1011.97 1012.19 1012.35 1012.51 1012.73 1012.88 1012.95 1013.14 1013.53 1013.61 1014.24 1014.40 1014.55 1014.70 1014.87 1014.96 1015.22 1015.72 1016.03 1016.03 1016.25 1016.43 1016.63 1017.11 1017.24 1017.25 1017.29 1017.13
1015.53 1015.18 1014.83 1014.38 1013.89 1013.31 1012.75 1012.22 1011.78 1011.40 1011.21 1011.02 1010.92 1010.79 1010.79 1010.84 1011.04 1011.22 1011.39 1011.51 1011.56 1011.58 1011.75 1012.01 1012.23 1012.58 1012.76 1013.15 1013.58 1013.72 1014.00 1014.40 1014.77 1015.08 1015.30 1015.78 1015.96 1016.18 1016.33 1016.65 1016.89 1016.69 1016.78
1015.86 1015.38 1014.96 1014.42 1013.88 1013.30 1012.76 1012.30 1011.86 1011.44 1011.03 1010.61 1010.31 1010.10 1009.96 1009.91 1009.96 1010.15 1010.23 1010.29 1010.36 1010.43 1010.48 1010.68 1010.82 1010.96 1011.17 1011.54 1012.06 1012.47 1012.88 1013.34 1013.76 1014.20 1014.42 1014.85 1015.12 1015.54 1015.25 1015.43 1015.84 1016.14 1016.15
1016.06 1015.56 1014.91 1014.39 1013.88 1013.44 1012.89 1012.36 1011.86 1011.24 1010.76 1010.37 1010.00 1009.60 1009.27 1008.99 1008.81 1008.80 1008.96 1009.11 1009.12 1009.23 1009.32 1009.42 1009.51 1009.67 1009.97 1010.14 1010.35 1010.66 1011.05 1011.50 1011.93 1012.41 1012.62 1012.82 1012.89 1013.06 1013.60 1014.06 1014.85 1015.87 1016.54
1016.13 1015.59 1015.02 1014.52 1014.05 1013.57 1012.97 1012.49 1012.01 1011.38 1010.83 1010.31 1009.82 1009.33 1008.88 1008.40 1008.04 1007.89 1007.93 1007.96 1007.98 1008.01 1008.10 1008.18 1008.25 1008.33 1008.65 1008.95 1009.16 1009.17 1009.23 1009.44 1009.55 1010.31 1010.62 1010.71 1010.73 1011.08 1012.04 1013.05 1013.50 1014.10 1014.19
1015.92 1015.38 1014.89 1014.42 1014.01 1013.46 1012.99 1012.57 1012.01 1011.44 1010.94 1010.28 1009.67 1009.07 1008.64 1007.93 1007.41 1007.17 1007.05 1006.94 1006.77 1006.69 1006.75 1006.88 1006.95 1007.02 1007.24 1007.65 1008.00 1007.99 1007.89 1007.95 1008.16 1008.54 1008.46 1008.30 1008.64 1009.28 1009.99 1010.44 1011.41 1012.62 1013.59
1015.59 1015.06 1014.58 1014.19 1013.71 1013.30 1012.86 1012.37 1011.83 1011.30 1010.68 1010.08 1009.46 1008.92 1008.53 1007.67 1006.98 1006.56 1006.38 1006.20 1005.96 1005.74 1005.60 1005.59 1005.68 1005.73 1005.97 1006.36 1006.60 1006.56 1006.47 1006.18 1006.72 1006.93 1006.68 1006.93 1007.60 1008.16 1008.81 1010.29 1011.38 1012.51 1012.94
1015.30 1014.77 1014.25 1013.77 1013.36 1012.96 1012.58 1012.08 1011.42 1011.03 1010.44 1009.78 1009.16 1008.66 1008.02 1007.46 1006.64 1006.18 1005.82 1005.58 1005.18 1004.91 1004.63 1004.34 1004.34 1004.43 1004.71 1005.03 1005.19 1005.35 1005.10 1005.05 1005.78 1005.93 1006.09 1006.38 1006.90 1007.36 1007.84 1007.87 1009.05 1010.16 1010.96
1014.87 1014.39 1013.97 1013.41 1012.96 1012.50 1011.96 1011.52 1011.07 1010.56 1010.02 1009.51 1008.91 1008.23 1007.67 1007.10 1006.32 1005.74 1005.29 1005.12 1004.69 1004.15 1003.74 1003.39 1003.09 1003.06 1003.26 1003.45 1003.55 1003.62 1003.32 1004.02 1004.14 1004.43 1004.71 1005.03 1005.43 1005.99 1006.50 1006.94 1007.05 1007.59 1008.82
1014.94 1014.27 1013.68 1013.06 1012.51 1011.90 1011.52 1011.06 1010.58 1010.16 1009.62 1009.07 1008.47 1007.80 1007.20 1006.57 1006.02 1005.32 1004.77 1004.38 1004.01 1003.79 1003.16 1002.66 1002.17 1001.94 1001.89 1001.95 1002.11 1002.04 1002.30 1002.65 1002.99 1003.29 1003.52 1003.75 1004.14 1004.57 1005.03 1005.52 1005.89 1006.08 1006.23
1015.08 1014.30 1013.59 1012.82 1012.21 1011.59 1011.12 1010.56 1010.11 1009.65 1009.26 1008.66 1008.11 1007.50 1006.79 1006.15 1005.63 1005.06 1004.31 1003.74 1003.25 1002.96 1002.43 1001.82 1001.38 1001.11 1000.91 1000.76 1000.76 1000.81 1001.17 1001.59 1001.79 1001.92 1002.12 1002.19 1002.63 1003.05 1003.85 1004.72 1005.40 1005.82 1006.23
1015.06 1014.45 1013.73 1013.00 1012.18 1011.36 1010.59 1010.10 1009.56 1009.08 1008.57 1008.11 1007.58 1006.94 1006.32 1005.76 1005.13 1004.56 1003.99 1003.43 1002.79 1002.18 1001.65 1001.12 1000.63 1000.27 1000.04 999.77 999.78 999.85 1000.00 1000.12 1000.31 1000.33 1000.50 1000.91 1001.36 1002.31 1002.99 1003.75 1004.94 1005.65 1006.30
1014.84 1014.16 1013.42 1012.62 1011.75 1011.08 1010.49 1009.86 1009.09 1008.42 1008.03 1007.49 1006.96 1006.51 1005.91 1005.15 1004.70 1004.01 1003.44 1002.87 1002.41 1001.79 1001.17 1000.61 1000.18 999.84 999.56 999.25 999.04 998.97 999.04 999.17 999.23 999.37 999.57 1000.01 1000.65 1001.47 1002.20 1002.95 1003.70 1004.72 1005.24
1014.87 1014.09 1013.34 1012.53 1011.77 1010.88 1010.00 1009.01 1008.37 1007.77 1007.27 1006.69 1006.25 1005.96 1005.22 1004.51 1004.03 1003.36 1002.54 1001.86 1001.45 1001.09 1000.58 1000.16 999.59 999.26 998.93 998.76 998.60 998.39 998.25 998.22 998.17 998.31 998.48 998.95 999.76 1000.38 1001.19 1002.12 1002.73 1003.36 1004.00
1015.23 1014.45 1013.55 1012.75 1011.78 1010.88 1010.07 1009.30 1008.24 1007.08 1006.77 1006.13 1005.36 1004.68 1004.09 1003.64 1002.97 1002.49 1001.84 1001.04 1000.42 1000.17 999.79 999.40 998.94 998.59 998.12 997.92 997.82 997.68 997.46 997.22 997.25 997.38 997.56 997.92 998.64 999.40 1000.14 1000.88 1001.48 1002.27 1002.92
1015.28 1014.43 1013.64 1012.87 1012.10 1011.21 1010.34 1009.44 1008.54 1007.54 1006.32 1004.59 1004.38 1004.16 1003.41 1002.68 1001.93 1001.31 1000.81 1000.28 999.64 999.12 999.02 998.61 998.18 997.81 997.43 997.11 996.94 996.79 996.53 996.42 996.40 996.40 996.57 996.96 997.61 998.15 998.95 999.58 1000.20 1000.82 1001.61
1015.49 1014.74 1014.12 1013.29 1012.38 1011.50 1010.58 1009.63 1008.62 1007.49 1006.45 1005.33 1004.06 1002.69 1002.42 1001.65 1000.88 1000.34 1000.07 999.81 999.19 998.61 998.13 997.76 997.35 996.99 996.61 996.29 996.03 995.86 995.70 995.57 995.60 995.56 995.62 995.92 996.46 997.07 997.65 998.27 998.94 999.55 1000.35
1016.08 1015.34 1014.59 1013.91 1013.02 1012.12 1011.20 1010.31 1009.39 1008.48 1007.31 1006.24 1005.28 1004.28 1002.83 1001.36 1000.32 999.71 999.37 998.94 998.38 997.83 997.38 996.86 996.37 996.06 995.80 995.56 995.29 995.09 994.91 994.80 994.68 994.79 994.75 995.03 995.33 995.80 996.31 997.08 997.80 998.54 999.24
1016.69 1015.95 1015.08 1014.27 1013.53 1012.80 1012.03 1011.27 1010.42 1009.44 1008.53 1007.52 1006.62 1005.59 1004.56 1003.06 1000.99 999.56 998.66 998.03 997.48 996.84 996.29 995.95 995.48 995.09 994.84 994.65 994.46 994.25 994.05 993.78 993.66 993.61 993.76 993.96 994.29 994.71 995.17 995.81 996.57 997.29 998.09
1017.28 1016.51 1015.70 1014.92 1014.21 1013.45 1012.72 1011.98 1011.16 1010.34 1009.44 1008.46 1007.39 1006.24 1005.02 1003.91 1002.94 1001.88 1000.72 999.67 998.11 996.13 995.45 995.05 994.52 994.11 993.84 993.60 993.41 993.18 992.90 992.65 992.58 992.53 992.51 992.81 993.24 993.72 994.24 994.80 995.58 996.30 997.13
1017.76 1017.09 1016.41 1015.63 1014.88 1014.20 1013.41 1012.71 1011.95 1011.08 1010.20 1009.22 1008.19 1007.10 1005.98 1004.98 1004.00 1002.92 1001.78 1000.63 999.62 998.24 996.76 994.93 993.76 993.26 992.93 992.57 992.21 991.92 991.60 991.20 991.12 991.20 991.29 991.50 992.01 992.50 993.05 993.74 994.47 995.34 996.04
1018.24 1017.66 1017.07 1016.39 1015.57 1014.92 1014.16 1013.46 1012.73 1011.86 1010.92 1009.97 1009.06 1008.13 1007.13 1006.05 1004.95 1003.78 1002.56 1001.35 1000.02 998.76 997.54 996.32 994.75 993.29 992.30 991.60 991.03 990.54 990.19 989.86 989.78 989.74 990.06 990.29 990.72 991.28 991.70 992.44 993.09 993.87 994.80
1018.78 1018.20 1017.71 1017.11 1016.36 1015.65 1014.92 1014.14 1013.36 1012.53 1011.62 1010.77 1009.88 1008.93 1008.02 1006.93 1005.78 1004.65 1003.44 1002.17 1000.89 999.65 998.34 997.00 995.78 994.54 992.97 991.64 990.48 989.61 989.08 988.72 988.63 988.57 988.78 989.01 989.39 989.93 990.61 990.95 991.97 992.83 993.76
1019.40 1018.79 1018.15 1017.70 1017.14 1016.33 1015.64 1014.85 1014.02 1013.12 1012.23 1011.35 1010.51 1009.56 1008.56 1007.50 1006.47 1005.38 1004.29 1003.02 1001.65 1000.32 999.27 997.90 996.48 994.87 993.32 991.84 990.59 989.72 988.74 988.13 987.82 987.59 987.73 988.04 988.66 988.80 990.10 990.50 991.06 991.96 992.47
Wind_Speed
12 11 8 7 7 6 9 11 11 10 10 11 10 11 12 12 11 11 13 11 12 13 11 11 14 10 9 7 6 6 8 6 10 4 4 4 6 6 5 5 6 6 5
10 8 8 8 6 6 8 11 9 11 10 13 11 12 12 13 12 13 14 13 14 14 15 13 15 8 12 10 8 12 11 9 9 13 5 5 7 6 6 6 6 5 5
11 11 8 8 8 7 8 8 7 9 11 11 11 12 13 13 13 13 15 15 15 15 15 14 16 12 13 11 12 11 10 8 9 7 8 4 5 2 3 3 5 6 4
11 11 10 9 8 7 7 7 7 8 10 11 12 13 13 14 13 14 14 15 15 15 15 15 16 16 17 15 12 14 10 9 8 10 9 4 3 4 3 4 5 4 5
9 10 10 9 8 9 11 9 7 6 8 11 12 12 13 11 10 13 14 15 16 16 15 15 16 18 24 20 12 13 13 11 9 10 10 4 6 4 9 4 8 4 5
9 8 9 8 8 8 10 11 10 10 8 7 8 11 12 10 16 20 17 14 16 16 16 15 15 20 21 26 28 26 19 15 15 12 12 11 15 13 5 9 6 4 4
8 10 10 8 7 9 9 10 11 12 10 11 9 7 10 11 17 20 22 16 14 15 16 15 14 12 18 16 24 30 29 29 28 17 15 17 16 16 11 8 9 6 7
8 9 9 7 10 10 8 10 10 10 9 10 11 11 8 9 16 19 21 16 16 17 16 16 17 16 14 16 16 17 20 20 21 18 18 18 17 11 16 15 15 7 3
12 11 9 6 11 11 10 11 9 9 11 9 9 10 10 12 14 17 15 13 13 16 15 16 17 17 18 21 17 18 18 18 18 28 31 26 20 20 16 8 6 8 5
12 11 11 10 11 11 11 11 7 7 10 9 12 9 11 11 15 17 15 8 11 10 12 14 20 20 22 22 18 17 18 16 13 13 15 20 16 15 25 18 12 12 4
12 11 10 11 12 9 8 9 9 10 9 9 11 11 9 9 12 16 17 9 9 10 10 10 10 18 24 27 25 18 19 14 15 14 13 11 13 12 12 14 14 14 8
14 13 13 13 10 10 10 9 11 10 10 9 10 10 8 8 10 14 17 16 15 10 12 10 11 15 20 24 23 27 27 21 11 9 10 11 11 12 12 13 14 15 11
14 13 12 13 12 12 11 11 9 9 7 9 8 9 10 10 8 13 19 19 18 11 9 13 19 17 18 19 24 26 24 13 13 13 12 13 11 11 11 7 3 5 4
15 15 14 13 15 12 10 9 9 8 9 9 8 10 10 11 11 9 7 7 12 11 11 10 11 15 15 13 12 14 12 12 13 13 12 11 8 8 10 8 8 5 4
15 13 14 13 13 12 12 10 11 11 9 9 10 10 11 13 14 20 17 13 11 14 18 10 8 5 7 7 7 9 8 10 12 12 11 10 7 9 9 8 7 6 10
13 11 11 11 11 11 11 12 17 18 18 19 19 16 14 23 26 28 25 26 24 23 11 10 10 8 9 8 7 8 8 12 11 11 10 10 9 11 10 8 8 8 11
13 13 11 13 11 11 11 12 14 16 23 24 25 26 24 21 26 25 25 28 27 18 9 9 9 9 8 7 8 8 9 9 11 10 10 10 10 10 14 10 11 10 9
13 20 11 11 11 11 11 12 11 12 14 17 14 19 25 28 28 26 23 21 13 8 6 9 9 8 8 8 8 9 8 7 8 10 10 9 10 11 11 11 12 12 11
11 10 11 10 10 13 11 11 12 12 12 13 14 18 16 24 26 23 19 10 11 11 9 8 7 8 8 8 8 8 10 9 9 9 10 10 11 11 11 11 11 17 17
11 20 16 10 10 11 10 11 11 12 12 12 12 14 16 19 13 11 10 9 10 10 9 10 9 8 8 8 8 8 8 9 9 9 10 10 10 11 12 11 11 12 12
9 10 20 10 10 10 10 11 11 11 12 12 12 14 29 15 15 13 13 11 10 10 10 10 9 9 8 8 8 8 9 10 9 10 10 10 11 11 11 11 11 11 11
9 10 11 11 10 11 12 11 11 12 12 12 12 14 29 13 13 13 13 15 16 12 8 9 10 9 8 8 9 9 10 11 10 11 11 10 10 11 11 11 11 10 11
10 10 11 10 10 16 12 11 11 12 13 13 13 13 13 13 13 14 14 14 14 14 15 13 10 9 8 9 9 10 11 11 11 11 12 11 11 11 12 11 12 12 13
11 12 11 11 11 11 11 12 12 17 15 13 13 14 14 14 14 16 15 15 15 15 13 14 14 18 15 13 12 11 11 12 10 11 16 12 12 14 12 13 13 16 13
9 11 10 11 11 11 12 12 12 12 12 13 13 12 13 13 14 16 16 15 15 15 17 16 13 19 18 21 19 18 17 18 16 13 12 15 15 17 15 13 14 13 15
9 10 10 9 10 10 11 11 12 12 13 12 13 13 14 13 14 14 15 16 16 15 18 14 19 23 23 16 15 18 17 17 16 18 13 12 12 12 10 11 18 14 17
Wind_Direction
356 344 323 275 240 225 226 229 226 225 216 222 218 218 219 219 214 215 224 223 217 228 224 219 229 218 220 214 204 197 206 176 230 249 224 209 197 206 212 212 207 206 218
346 342 348 351 319 263 244 243 235 225 219 225 223 222 224 222 215 215 222 223 222 226 229 227 232 215 225 215 210 217 215 201 213 242 211 213 207 206 209 204 213 211 206
352 350 342 353 1 334 289 268 249 238 240 236 227 223 226 227 220 217 220 223 224 225 227 222 230 216 224 222 219 222 217 211 211 221 237 206 201 166 191 221 210 223 217
349 348 344 341 342 341 330 315 287 262 252 244 237 233 227 228 223 224 223 226 228 229 228 224 226 218 223 221 219 223 220 213 207 219 233 207 186 208 180 191 234 213 225
339 343 336 325 333 344 345 337 322 297 272 262 254 242 239 228 223 224 224 226 229 232 231 225 226 225 224 221 214 218 213 211 210 217 225 190 202 190 206 178 215 184 236
330 322 326 324 332 334 334 331 329 329 318 288 266 255 247 237 235 224 221 226 228 231 234 232 232 230 228 227 225 224 212 205 213 210 220 219 223 216 183 194 179 159 245
320 318 321 316 323 329 326 325 327 326 320 322 305 272 259 254 247 238 227 232 234 234 234 236 235 231 227 229 231 231 228 218 217 208 220 217 225 211 191 186 190 184 202
317 306 312 305 320 322 320 318 318 318 311 315 309 306 283 273 261 254 245 239 241 240 237 235 235 235 224 219 225 229 231 228 223 223 220 226 223 206 198 201 202 196 60
318 311 311 295 318 315 314 313 309 310 315 310 307 306 301 292 277 267 258 258 251 248 244 238 236 237 234 220 223 231 235 236 229 227 233 230 226 204 185 138 169 168 212
304 301 304 304 312 304 303 302 294 297 299 306 305 300 290 291 291 279 272 264 263 257 249 245 239 235 234 227 223 230 240 237 223 230 234 239 228 212 188 192 178 197 160
297 296 291 296 301 287 291 295 296 296 297 297 298 297 286 275 287 286 281 274 266 266 259 256 245 232 230 231 227 229 238 239 229 223 226 225 219 207 203 207 194 197 185
307 300 297 295 293 296 294 293 291 287 289 295 300 303 300 290 271 286 285 277 271 269 271 266 261 240 231 225 228 235 239 238 238 227 222 219 213 209 208 207 204 210 212
316 317 311 303 294 293 290 292 291 288 278 290 293 301 305 306 298 280 281 284 284 278 268 266 265 259 243 236 231 232 230 233 238 234 226 227 218 212 208 191 135 118 102
308 305 309 313 310 301 296 288 282 282 285 286 290 299 300 302 303 298 287 285 292 292 286 281 265 259 256 248 240 232 230 228 228 235 231 229 214 186 195 177 184 161 155
301 305 300 293 288 291 290 297 291 284 269 278 291 293 300 299 296 293 295 297 296 295 300 291 282 265 260 247 237 232 227 227 229 233 233 221 197 186 194 179 186 178 204
319 316 313 312 307 296 293 291 283 274 277 279 279 280 288 284 288 288 288 294 294 294 293 286 278 265 254 251 239 233 224 225 230 231 226 214 194 193 190 183 185 187 202
319 312 311 310 301 300 300 300 302 303 294 290 288 286 285 285 291 285 284 288 290 297 274 273 269 268 260 246 242 233 233 226 226 228 225 212 197 194 194 187 193 192 197
321 319 318 319 312 307 301 295 291 292 298 305 295 293 291 289 284 279 276 286 294 282 251 266 270 269 265 258 247 242 243 236 218 222 218 206 200 195 194 194 195 193 194
341 340 337 330 326 328 326 324 319 310 296 292 300 302 304 302 294 290 288 276 277 281 282 266 260 263 267 264 252 247 241 236 228 222 217 204 198 195 203 199 197 194 187
349 352 356 345 341 343 340 339 334 331 326 323 331 331 320 304 295 294 284 268 265 268 271 271 269 264 265 266 264 250 243 240 233 225 219 208 202 200 204 195 191 187 192
350 353 3 355 356 353 351 350 344 343 342 338 337 337 342 328 329 300 287 279 269 265 267 263 271 267 261 260 264 258 247 243 232 227 224 213 205 201 202 197 191 191 187
355 356 356 357 359 360 5 357 352 352 349 347 344 345 351 352 345 338 335 336 329 297 265 261 265 266 262 260 260 259 254 249 240 230 226 216 206 200 197 194 188 188 181
4 1 360 357 1 4 0 360 358 359 355 352 351 351 352 351 346 343 339 335 331 328 326 311 285 274 274 273 261 252 256 252 242 229 222 208 201 197 192 190 186 186 184
8 10 1 0 4 1 359 0 359 358 358 357 354 354 353 352 350 347 347 344 338 335 330 327 317 300 288 276 271 263 249 250 247 230 212 206 202 196 191 189 188 187 182
4 10 7 358 353 358 353 355 356 353 353 356 351 353 352 352 353 352 348 348 347 344 343 338 332 327 324 319 303 286 265 247 241 222 209 209 202 195 194 187 183 182 179
0 1 7 359 350 358 355 353 352 351 351 353 353 352 349 348 351 351 351 350 348 349 348 345 343 340 336 325 320 313 305 281 250 222 212 207 199 179 189 193 185 181 171